EW1296 Weather Reports


Display with metric or nautical units.
time (UTC)temp
F
wind
direction
speed
MPH
gust
MPH
rain 1hr
in
rain 24hr
in
rain mn
in
humidity
%
barometer
mb
20260906014517 76 45 3.0 9.0 0.00 0.00 0.00 59 1011.7
20260906014017 76 23 2.0 6.0 0.00 0.00 0.00 59 1011.7
20260906013519 76 45 2.0 5.0 0.00 0.00 0.00 59 1011.7
20260906013037 76 338 2.0 5.0 0.00 0.00 0.00 57 1011.6
20260906012517 76 45 2.0 9.0 0.00 0.00 0.00 56 1011.6
20260906012017 76 45 2.0 5.0 0.00 0.00 0.00 57 1011.6
20260906011518 76 23 2.0 8.0 0.00 0.00 0.00 57 1011.6
20260906011018 76 338 3.0 11.0 0.00 0.00 0.00 58 1011.5
20260906010517 77 45 3.0 8.0 0.00 0.00 0.00 59 1011.5
20260906010017 77 338 3.0 8.0 0.00 0.00 0.00 60 1011.5
20260906005516 77 338 4.0 10.0 0.00 0.00 0.00 60 1011.4
20260906005018 77 338 3.0 8.0 0.00 0.00 0.00 59 1011.4
20260906004516 77 0 2.0 8.0 0.00 0.00 0.00 58 1011.3
20260906004016 77 0 2.0 4.0 0.00 0.00 0.00 58 1011.3
20260906003517 77 338 2.0 5.0 0.00 0.00 0.00 58 1011.2
20260906003017 77 45 2.0 6.0 0.00 0.00 0.00 58 1011.1
20260906002518 77 0 1.0 4.0 0.00 0.00 0.00 58 1011.1
20260906002018 77 45 2.0 8.0 0.00 0.00 0.00 57 1011.0
20260906001537 77 338 2.0 7.0 0.00 0.00 0.00 57 1010.8
20260906001017 77 0 3.0 8.0 0.00 0.00 0.00 58 1010.7
20260906000517 77 338 2.0 5.0 0.00 0.00 0.00 57 1010.7
20260906000017 78 23 2.0 5.0 0.00 0.00 0.00 57 1010.7
20260905235537 78 315 3.0 9.0 0.00 0.00 0.00 58 1010.6
20260905235016 78 315 3.0 8.0 0.00 0.00 0.00 58 1010.6
20260905234518 78 338 2.0 5.0 0.00 0.00 0.00 57 1010.5
20260905234016 78 338 2.0 7.0 0.00 0.00 0.00 56 1010.5
20260905233517 78 338 3.0 9.0 0.00 0.00 0.00 55 1010.5
20260905233038 78 338 3.0 7.0 0.00 0.00 0.00 55 1010.5
20260905232537 79 0 3.0 8.0 0.00 0.00 0.00 54 1010.5
20260905232016 79 0 3.0 8.0 0.00 0.00 0.00 53 1010.5
20260905231537 79 338 2.0 5.0 0.00 0.00 0.00 53 1010.5
20260905231017 79 0 3.0 9.0 0.00 0.00 0.00 52 1010.6
20260905230517 79 338 2.0 6.0 0.00 0.00 0.00 51 1010.6
20260905230017 79 45 3.0 8.0 0.00 0.00 0.00 51 1010.5
20260905225517 80 315 3.0 9.0 0.00 0.00 0.00 51 1010.4
20260905225016 80 0 3.0 10.0 0.00 0.00 0.00 50 1010.4
20260905224518 80 338 3.0 10.0 0.00 0.00 0.00 49 1010.3
20260905224017 80 338 4.0 10.0 0.00 0.00 0.00 50 1010.3
20260905223516 80 338 3.0 9.0 0.00 0.00 0.00 50 1010.3
20260905223037 81 0 3.0 8.0 0.00 0.00 0.00 49 1010.4
20260905222517 81 23 3.0 7.0 0.00 0.00 0.00 50 1010.4
20260905222016 81 315 2.0 6.0 0.00 0.00 0.00 50 1010.3
20260905221517 81 0 3.0 10.0 0.00 0.00 0.00 49 1010.2
20260905221017 81 0 2.0 7.0 0.00 0.00 0.00 49 1010.0
20260905220516 81 45 2.0 6.0 0.00 0.00 0.00 49 1010.0
20260905220016 81 338 2.0 8.0 0.00 0.00 0.00 49 1010.0
20260905215559 81 23 2.0 9.0 0.00 0.00 0.00 48 1010.0
20260905215016 81 23 3.0 6.0 0.00 0.00 0.00 48 1010.0
20260905214518 81 0 2.0 5.0 0.00 0.00 0.00 49 1010.0
20260905214016 81 0 4.0 11.0 0.00 0.00 0.00 48 1010.0
20260905213517 82 23 3.0 9.0 0.00 0.00 0.00 48 1010.0
20260905213017 82 338 2.0 5.0 0.00 0.00 0.00 47 1010.0
20260905212517 82 0 4.0 10.0 0.00 0.00 0.00 47 1010.0
20260905212017 82 338 2.0 6.0 0.00 0.00 0.00 47 1010.0
20260905211516 82 0 2.0 8.0 0.00 0.00 0.00 47 1009.9
20260905211016 82 23 2.0 9.0 0.00 0.00 0.00 47 1010.0
20260905210516 82 338 3.0 8.0 0.00 0.00 0.00 47 1010.0
20260905210017 82 338 4.0 8.0 0.00 0.00 0.00 47 1010.0
20260905205518 82 45 3.0 11.0 0.00 0.00 0.00 47 1010.0
20260905205016 82 338 3.0 6.0 0.00 0.00 0.00 48 1009.9
20260905204516 83 0 3.0 9.0 0.00 0.00 0.00 48 1009.9
20260905204036 82 0 2.0 5.0 0.00 0.00 0.00 47 1009.9
20260905203516 82 0 3.0 6.0 0.00 0.00 0.00 48 1009.9
20260905203017 82 293 2.0 6.0 0.00 0.00 0.00 48 1009.8
20260905202536 82 338 1.0 5.0 0.00 0.00 0.00 48 1009.8
20260905202016 82 23 2.0 6.0 0.00 0.00 0.00 49 1009.8
20260905201516 82 338 2.0 5.0 0.00 0.00 0.00 49 1009.9
20260905201016 81 23 2.0 5.0 0.00 0.00 0.00 48 1009.8
20260905200536 81 293 2.0 8.0 0.00 0.00 0.00 48 1009.9
20260905200016 82 23 3.0 10.0 0.00 0.00 0.00 48 1009.8
20260905195537 82 338 3.0 6.0 0.00 0.00 0.00 47 1009.8
20260905195016 82 45 3.0 8.0 0.00 0.00 0.00 47 1009.9
20260905194516 82 0 3.0 7.0 0.00 0.00 0.00 48 1009.9
20260905194038 82 338 4.0 9.0 0.00 0.00 0.00 47 1010.0
20260905193516 83 315 6.0 12.0 0.00 0.00 0.00 45 1010.0
20260905193018 84 315 5.0 11.0 0.00 0.00 0.00 45 1009.9
20260905192538 84 315 5.0 12.0 0.00 0.00 0.00 45 1009.9
20260905192016 84 45 3.0 7.0 0.00 0.00 0.00 45 1010.0
20260905191516 84 338 3.0 10.0 0.00 0.00 0.00 45 1010.0
20260905191036 84 45 3.0 9.0 0.00 0.00 0.00 45 1010.0
20260905190516 83 315 2.0 4.0 0.00 0.00 0.00 46 1010.0
20260905190016 82 23 4.0 8.0 0.00 0.00 0.00 47 1010.1
20260905185517 82 0 3.0 7.0 0.00 0.00 0.00 48 1010.1
20260905185036 82 338 3.0 9.0 0.00 0.00 0.00 47 1010.2
20260905184516 82 0 3.0 9.0 0.00 0.00 0.00 47 1010.2
20260905184037 82 315 3.0 9.0 0.00 0.00 0.00 47 1010.3
20260905183536 83 270 3.0 9.0 0.00 0.00 0.00 47 1010.2
20260905183017 83 45 2.0 8.0 0.00 0.00 0.00 48 1010.2
20260905182516 82 293 3.0 9.0 0.00 0.00 0.00 49 1010.3
20260905182018 82 0 3.0 9.0 0.00 0.00 0.00 49 1010.4
20260905181537 82 0 4.0 10.0 0.00 0.00 0.00 49 1010.4
20260905181016 82 338 4.0 8.0 0.00 0.00 0.00 49 1010.4
20260905180516 82 315 4.0 12.0 0.00 0.00 0.00 48 1010.4
20260905180037 82 315 2.0 6.0 0.00 0.00 0.00 48 1010.4
20260905175516 82 315 3.0 10.0 0.00 0.00 0.00 48 1010.4
20260905175016 83 293 5.0 10.0 0.00 0.00 0.00 47 1010.4
20260905174516 82 270 4.0 11.0 0.00 0.00 0.00 48 1010.4
20260905174016 82 338 3.0 8.0 0.00 0.00 0.00 49 1010.5
20260905173517 82 315 6.0 11.0 0.00 0.00 0.00 48 1010.5
20260905173017 82 45 4.0 10.0 0.00 0.00 0.00 49 1010.5
20260905172516 82 0 4.0 11.0 0.00 0.00 0.00 47 1010.6
20260905172036 82 45 4.0 10.0 0.00 0.00 0.00 47 1010.6
20260905171518 82 0 3.0 8.0 0.00 0.00 0.00 47 1010.7
20260905171017 82 0 3.0 9.0 0.00 0.00 0.00 48 1010.7
20260905170516 82 45 4.0 11.0 0.00 0.00 0.00 48 1010.7
20260905170016 82 45 3.0 9.0 0.00 0.00 0.00 50 1010.7
20260905165516 81 0 4.0 10.0 0.00 0.00 0.00 50 1010.6
20260905165037 81 0 4.0 10.0 0.00 0.00 0.00 50 1010.7
20260905164516 81 315 4.0 10.0 0.00 0.00 0.00 51 1010.8
20260905164016 81 0 3.0 7.0 0.00 0.00 0.00 52 1010.9
20260905163516 81 45 5.0 13.0 0.00 0.00 0.00 52 1010.8
20260905163016 81 0 4.0 10.0 0.00 0.00 0.00 51 1010.9
20260905162516 81 0 4.0 8.0 0.00 0.00 0.00 51 1010.8
20260905162016 81 0 4.0 9.0 0.00 0.00 0.00 52 1010.8
20260905161516 81 0 4.0 9.0 0.00 0.00 0.00 53 1010.7
20260905161017 81 315 4.0 9.0 0.00 0.00 0.00 53 1010.8
20260905160516 81 293 3.0 12.0 0.00 0.00 0.00 50 1010.7
20260905160016 81 338 3.0 7.0 0.00 0.00 0.00 51 1010.7
20260905155518 81 293 3.0 9.0 0.00 0.00 0.00 51 1010.7
20260905155017 81 315 3.0 9.0 0.00 0.00 0.00 51 1010.6
20260905154516 81 0 4.0 9.0 0.00 0.00 0.00 51 1010.6
20260905154018 81 338 4.0 8.0 0.00 0.00 0.00 51 1010.6
20260905153517 80 45 4.0 10.0 0.00 0.00 0.00 53 1010.6
20260905153017 80 338 3.0 8.0 0.00 0.00 0.00 53 1010.7
20260905152516 80 0 3.0 9.0 0.00 0.00 0.00 52 1010.7
20260905152017 81 315 3.0 9.0 0.00 0.00 0.00 53 1010.7
20260905151516 80 315 3.0 9.0 0.00 0.00 0.00 53 1010.8
20260905151016 80 45 3.0 5.0 0.00 0.00 0.00 54 1010.7
20260905150516 79 0 4.0 11.0 0.00 0.00 0.00 55 1010.7
20260905150036 79 338 4.0 11.0 0.00 0.00 0.00 55 1010.7
20260905145516 79 23 4.0 10.0 0.00 0.00 0.00 54 1010.8
20260905145016 79 0 4.0 12.0 0.00 0.00 0.00 54 1010.7
20260905144516 79 338 4.0 10.0 0.00 0.00 0.00 55 1010.7
20260905144016 79 338 3.0 11.0 0.00 0.00 0.00 57 1010.6
20260905143516 79 315 3.0 7.0 0.00 0.00 0.00 58 1010.6
20260905143017 78 45 3.0 8.0 0.00 0.00 0.00 58 1010.6
20260905142516 78 270 2.0 6.0 0.00 0.00 0.00 59 1010.6
20260905142016 77 338 2.0 5.0 0.00 0.00 0.00 61 1010.5
20260905141517 77 23 3.0 7.0 0.00 0.00 0.00 62 1010.7
20260905141037 77 338 3.0 9.0 0.00 0.00 0.00 62 1010.6
20260905140517 77 338 3.0 6.0 0.00 0.00 0.00 63 1010.5
20260905140016 76 338 3.0 7.0 0.00 0.00 0.00 63 1010.5
20260905135516 76 315 4.0 9.0 0.00 0.00 0.00 63 1010.6
20260905135017 76 315 4.0 10.0 0.00 0.00 0.00 64 1010.5
20260905134517 76 338 3.0 10.0 0.00 0.00 0.00 63 1010.5
20260905134016 76 293 3.0 8.0 0.00 0.00 0.00 64 1010.5
20260905133516 76 315 4.0 9.0 0.00 0.00 0.00 64 1010.5
20260905133016 76 315 4.0 9.0 0.00 0.00 0.00 63 1010.5
20260905132537 76 293 4.0 8.0 0.00 0.00 0.00 64 1010.6
20260905132056 76 315 3.0 8.0 0.00 0.00 0.00 64 1010.6
20260905131538 76 0 4.0 8.0 0.00 0.00 0.00 64 1010.7
20260905131016 75 315 3.0 7.0 0.00 0.00 0.00 64 1010.7
20260905130515 75 315 3.0 7.0 0.00 0.00 0.00 64 1010.8
20260905130036 75 338 2.0 6.0 0.00 0.00 0.00 65 1010.9
20260905125516 75 0 2.0 4.0 0.00 0.00 0.00 65 1010.9
20260905125017 75 293 4.0 9.0 0.00 0.00 0.00 65 1011.0
20260905124517 75 315 4.0 8.0 0.00 0.00 0.00 65 1011.0
20260905124017 75 0 2.0 8.0 0.00 0.00 0.00 66 1011.0
20260905123536 74 315 2.0 8.0 0.00 0.00 0.00 67 1011.0
20260905123016 74 315 3.0 8.0 0.00 0.00 0.00 67 1011.2
20260905122536 74 315 4.0 9.0 0.00 0.00 0.00 67 1011.2
20260905122037 74 315 4.0 10.0 0.00 0.00 0.00 67 1011.3
20260905121515 74 315 3.0 8.0 0.00 0.00 0.00 67 1011.2
20260905121016 73 315 3.0 6.0 0.00 0.00 0.00 68 1011.0
20260905120515 73 315 4.0 8.0 0.00 0.00 0.00 68 1011.2
20260905120036 73 315 3.0 8.0 0.00 0.00 0.00 68 1011.1
20260905115516 73 315 2.0 6.0 0.00 0.00 0.00 68 1011.1
20260905115017 73 315 3.0 6.0 0.00 0.00 0.00 68 1011.1
20260905114517 73 338 2.0 5.0 0.00 0.00 0.00 68 1011.0
20260905114017 73 338 2.0 5.0 0.00 0.00 0.00 68 1010.9
20260905113516 73 315 3.0 8.0 0.00 0.00 0.00 68 1010.9
20260905113016 73 315 3.0 8.0 0.00 0.00 0.00 68 1010.9
20260905112515 72 338 2.0 7.0 0.00 0.00 0.00 68 1010.8
20260905112015 72 338 1.0 4.0 0.00 0.00 0.00 68 1010.7
20260905111516 72 23 1.0 5.0 0.00 0.00 0.00 68 1010.7
20260905111015 72 0 3.0 8.0 0.00 0.00 0.00 68 1010.7
20260905110517 72 338 2.0 6.0 0.00 0.00 0.00 68 1010.5
20260905110036 72 293 1.0 4.0 0.00 0.00 0.00 68 1010.4
20260905105515 72 0 2.0 5.0 0.00 0.00 0.00 67 1010.4
20260905105015 72 0 2.0 4.0 0.00 0.00 0.00 67 1010.3
20260905104517 72 315 3.0 6.0 0.00 0.00 0.00 67 1010.2
20260905104057 72 315 2.0 4.0 0.00 0.00 0.00 67 1010.3
20260905103517 72 338 1.0 3.0 0.00 0.00 0.00 66 1010.3
20260905103016 72 338 2.0 5.0 0.00 0.00 0.00 66 1010.2
20260905102516 73 338 2.0 8.0 0.00 0.00 0.00 66 1010.1
20260905102035 73 0 2.0 4.0 0.00 0.00 0.00 66 1010.0
20260905101516 73 0 1.0 4.0 0.00 0.00 0.00 66 1010.1
20260905101015 73 0 1.0 4.0 0.00 0.00 0.00 66 1010.0
20260905100515 73 0 2.0 8.0 0.00 0.00 0.00 65 1010.0
20260905100015 73 338 2.0 6.0 0.00 0.00 0.00 65 1010.1
20260905095516 73 0 3.0 8.0 0.00 0.00 0.00 65 1010.1
20260905095015 74 338 2.0 5.0 0.00 0.00 0.00 64 1010.1
20260905094515 74 338 2.0 4.0 0.00 0.00 0.00 65 1010.1
20260905094016 74 338 2.0 5.0 0.00 0.00 0.00 65 1010.0
20260905093515 74 0 3.0 8.0 0.00 0.00 0.00 65 1009.9
20260905093016 74 315 2.0 4.0 0.00 0.00 0.00 65 1009.9
20260905092516 74 338 2.0 5.0 0.00 0.00 0.00 64 1009.9
20260905092015 74 338 2.0 4.0 0.00 0.00 0.00 64 1009.8
20260905091517 74 338 2.0 7.0 0.00 0.00 0.00 63 1009.8
20260905091016 74 338 2.0 5.0 0.00 0.00 0.00 63 1009.9
20260905090515 74 0 2.0 4.0 0.00 0.00 0.00 63 1009.8
20260905090015 74 315 3.0 8.0 0.00 0.00 0.00 63 1009.8
20260905085515 74 0 3.0 8.0 0.00 0.00 0.00 63 1009.8
20260905085015 75 338 3.0 6.0 0.00 0.00 0.00 62 1009.8
20260905084535 75 338 2.0 6.0 0.00 0.00 0.00 62 1009.8
20260905084015 75 338 3.0 8.0 0.00 0.00 0.00 62 1009.8
20260905083515 75 0 3.0 9.0 0.00 0.00 0.00 62 1009.9
20260905083015 75 338 2.0 4.0 0.00 0.00 0.00 61 1009.9
20260905082515 75 338 2.0 7.0 0.00 0.00 0.00 61 1009.8
20260905082016 75 338 3.0 7.0 0.00 0.00 0.00 60 1009.8
20260905081515 75 338 3.0 7.0 0.00 0.00 0.00 60 1009.8
20260905081015 75 338 4.0 8.0 0.00 0.00 0.00 60 1009.8
20260905080517 75 45 3.0 10.0 0.00 0.00 0.00 59 1009.8
20260905080017 75 338 2.0 5.0 0.00 0.00 0.00 59 1009.9
20260905075517 76 315 3.0 8.0 0.00 0.00 0.00 59 1009.8
20260905075017 76 338 3.0 9.0 0.00 0.00 0.00 59 1009.9
20260905074517 76 0 3.0 8.0 0.00 0.00 0.00 59 1009.9
20260905074019 76 338 2.0 5.0 0.00 0.00 0.00 59 1009.9
20260905073517 76 315 2.0 9.0 0.00 0.00 0.00 59 1009.9
20260905073017 76 315 2.0 5.0 0.00 0.00 0.00 59 1009.8
20260905072517 76 338 3.0 6.0 0.00 0.00 0.00 59 1009.8
20260905072017 76 338 3.0 8.0 0.00 0.00 0.00 59 1009.9
20260905071537 76 0 3.0 9.0 0.00 0.00 0.00 59 1009.9
20260905071018 76 0 2.0 4.0 0.00 0.00 0.00 59 1010.0
20260905070518 76 338 2.0 6.0 0.00 0.00 0.00 59 1010.0
20260905070018 76 23 3.0 9.0 0.00 0.00 0.00 59 1010.0
20260905065517 76 338 2.0 6.0 0.00 0.00 0.00 59 1009.9
20260905065018 76 45 3.0 8.0 0.00 0.00 0.00 59 1009.9
20260905064518 76 0 2.0 7.0 0.00 0.00 0.00 60 1009.8
20260905064018 76 0 2.0 6.0 0.00 0.00 0.00 60 1009.9
20260905063517 76 45 3.0 5.0 0.00 0.00 0.00 61 1010.0
20260905063017 76 0 2.0 8.0 0.00 0.00 0.00 62 1010.0
20260905062517 76 68 1.0 4.0 0.00 0.00 0.00 63 1010.1
20260905062017 77 338 1.0 4.0 0.00 0.00 0.00 63 1010.1
20260905061517 77 338 1.0 3.0 0.00 0.00 0.00 63 1010.1
20260905061017 77 338 1.0 2.0 0.00 0.00 0.00 63 1010.2
20260905060519 77 338 1.0 3.0 0.00 0.00 0.00 63 1010.2
20260905060017 77 338 2.0 6.0 0.00 0.00 0.00 62 1010.3
20260905055517 77 0 1.0 3.0 0.00 0.00 0.00 62 1010.4
20260905055017 77 0 2.0 6.0 0.00 0.00 0.00 61 1010.3
20260905054518 77 0 1.0 5.0 0.00 0.00 0.00 61 1010.5
20260905054038 77 293 1.0 5.0 0.00 0.00 0.00 61 1010.6
20260905053537 77 0 2.0 8.0 0.00 0.00 0.00 61 1010.6
20260905053017 77 338 1.0 3.0 0.00 0.00 0.00 61 1010.6
20260905052518 77 338 2.0 7.0 0.00 0.00 0.00 61 1010.7
20260905052017 77 338 3.0 8.0 0.00 0.00 0.00 61 1010.7
20260905051517 77 338 2.0 9.0 0.00 0.00 0.00 61 1010.9
20260905051018 77 0 3.0 10.0 0.00 0.00 0.00 61 1010.8
20260905050517 77 0 3.0 9.0 0.00 0.00 0.00 61 1010.9
20260905050017 77 0 2.0 5.0 0.00 0.00 0.00 61 1010.8
20260905045517 77 0 3.0 9.0 0.00 0.00 0.00 61 1010.8
20260905045018 77 45 2.0 9.0 0.00 0.00 0.00 61 1010.8
20260905044537 77 0 2.0 8.0 0.00 0.00 0.00 61 1010.9
20260905044017 78 0 3.0 8.0 0.00 0.00 0.00 61 1010.9
20260905043517 78 23 3.0 8.0 0.00 0.00 0.00 61 1010.9
20260905043017 78 45 2.0 6.0 0.00 0.00 0.00 62 1010.9
20260905042517 78 338 3.0 10.0 0.00 0.00 0.00 63 1010.9
20260905042017 78 338 2.0 8.0 0.00 0.00 0.00 63 1010.9
20260905041517 78 293 1.0 3.0 0.00 0.00 0.00 63 1011.0
20260905041017 78 23 1.0 3.0 0.00 0.00 0.00 63 1010.9
20260905040517 78 23 1.0 5.0 0.00 0.00 0.00 63 1010.9
20260905040017 78 0 1.0 3.0 0.00 0.00 0.00 63 1010.9
20260905035516 78 0 2.0 4.0 0.00 0.00 0.00 62 1011.0
20260905035016 78 0 2.0 4.0 0.00 0.00 0.00 62 1010.9
20260905034535 78 315 2.0 5.0 0.00 0.00 0.00 62 1010.9
20260905034015 78 315 3.0 9.0 0.00 0.00 0.00 62 1010.8
20260905033516 78 23 3.0 9.0 0.00 0.00 0.00 61 1010.8
20260905033037 78 23 1.0 4.0 0.00 0.00 0.00 62 1010.7
20260905032515 78 293 2.0 6.0 0.00 0.00 0.00 62 1010.8
20260905032015 79 0 3.0 9.0 0.00 0.00 0.00 62 1010.7
20260905031515 79 338 2.0 5.0 0.00 0.00 0.00 62 1010.7
20260905031015 79 338 3.0 8.0 0.00 0.00 0.00 61 1010.8
20260905030558 79 338 3.0 9.0 0.00 0.00 0.00 61 1010.8
20260905030017 79 315 3.0 7.0 0.00 0.00 0.00 60 1010.9
20260905025515 79 0 2.0 7.0 0.00 0.00 0.00 60 1010.8
20260905025015 79 0 3.0 8.0 0.00 0.00 0.00 60 1010.8
20260905024515 79 0 2.0 6.0 0.00 0.00 0.00 60 1010.8
20260905024015 79 0 2.0 7.0 0.00 0.00 0.00 60 1010.7
20260905023515 79 293 3.0 8.0 0.00 0.00 0.00 60 1010.7
20260905023015 79 338 4.0 8.0 0.00 0.00 0.00 60 1010.7
20260905022515 79 315 4.0 10.0 0.00 0.00 0.00 60 1010.8
20260905022017 80 315 3.0 8.0 0.00 0.00 0.00 60 1010.9
20260905021518 80 315 3.0 9.0 0.00 0.00 0.00 60 1010.9
20260905021039 80 293 2.0 7.0 0.00 0.00 0.00 60 1010.9
20260905020517 80 338 3.0 7.0 0.00 0.00 0.00 60 1010.8
20260905020017 80 315 3.0 7.0 0.00 0.00 0.00 60 1010.9
20260905015516 80 315 3.0 7.0 0.00 0.00 0.00 60 1010.9
20260905015018 80 315 2.0 6.0 0.00 0.00 0.00 60 1010.9